Location: Shannon
(40.5500°S, 175.4167°E)
Time: 20:45:03
(UTC+00:00)

Cosmos 2263 Rocket - Pass Details

Date: 17 November 2025
Orbit: 822 x 847 km, 71.0° (Epoch: 06 December)

Event Time Altitude Azimuth Distance (km) Brightness Sun altitude
Exits shadow 15:32:42 12° 275° (W) 2,370 4.1 -13.0°
Maximum altitude 15:36:23 20° 232° (SW) 1,873 3.9 -12.5°
Drops below altitude 10° 15:40:33 10° 185° (S) 2,495 5.1 -11.9°
Sets 15:43:42 0° 168° (SSE) 3,432 6.2 -11.4°
